x

Northern Hawaii One - 245nm Ne Of Honolulu Hi (51000) Wave Buoy

9:50am - Fri 12th Feb 2016 All times are HST. -10 hours from GMT.

  • Sig Wave height 12.1ft
  • Swell Direction
  • Peak Period 15s
  • Average Period 9s
  • Wind
    18mph, 22mph gusts
  • Sea Temp 75°f
  • Air Temp 73°f
  • Sea Pressure 1019.2mb
  • Northern Hawaii One - 245nm Ne Of Honolulu Hi
  • Northern Hawaii One - 245nm Ne Of Honolulu Hi

More Historic Weather Station data

Upgrade to MSW Pro to gain access to the past 30 days of data for over 8000 Wavebouys and Weather Stations around the globe.

Join Pro

Comparision Forecast

View Surf forecast
   
Fri 02/12 9:50am 12ft 15s 9s 18 22 mph 1019.2mb 75f 73f
8:50am 12.5ft 16s 10s 13 16 mph 1019.1mb 75f 72f
7:50am 13ft 16s 10s 18 22 mph 1018.8mb 75f 72f
6:50am 15ft 16s 10s 18 22 mph 1018.3mb 75f 72f
5:50am 14ft 16s 10s 18 22 mph 1017.6mb 75f 74f
4:50am 14ft 15s 10s 18 25 mph 1017.3mb 75f 73f
3:50am 15ft 16s 11s 18 22 mph 1017.3mb 75f 73f
2:50am 15.5ft 16s 11s 18 25 mph 1017.6mb 75f 73f
1:50am 15.5ft 16s 11s 18 22 mph 1018mb 75f 74f
12:50am 16ft 16s 11s 18 25 mph 1018.6mb 75f 73f
Thu 02/11 11:50pm 18ft 16s 12s 20 25 mph 1018.9mb 75f 73f
10:50pm 17.5ft 16s 12s 16 22 mph 1019.2mb 75f 74f
9:50pm 15.5ft 16s 12s 16 20 mph 1019.5mb 75f 73f
8:50pm 16.5ft 16s 12s 13 20 mph 1019.7mb 75f 73f
7:50pm 17.5ft 16s 13s 13 16 mph 1019.5mb 75f 73f
6:50pm 17ft 14s 12s 11 13 mph 1019.1mb 75f 73f
5:50pm 22.5ft 17s 14s 11 13 mph 1018.6mb 75f 73f
4:50pm 16ft 17s 13s 11 13 mph 1018mb 75f 73f
3:50pm 17.5ft 17s 13s 9 11 mph 1018mb 75f 73f
2:50pm 18ft 17s 13s 11 13 mph 1018mb 75f 73f
1:50pm 18.5ft 16s 13s 11 13 mph 1018.3mb 75f 73f
12:50pm 18.5ft 17s 13s 11 13 mph 1018.8mb 75f 73f
11:50am 18.5ft 17s 13s 9 13 mph 1019.7mb 75f 73f
10:50am 16.5ft 17s 13s 11 13 mph 1020.2mb 75f 73f
9:50am 17ft 17s 12s 9 13 mph 1020.1mb 75f 73f
8:50am 19ft 17s 13s 9 11 mph 1019.7mb 75f 72f
7:50am 17.5ft 17s 13s 9 11 mph 1019.3mb 75f 73f
6:50am 17ft 16s 13s 7 9 mph 1018.8mb 75f 72f
5:50am 18.5ft 17s 13s 7 11 mph 1018mb 75f 72f
4:50am 18.5ft 19s 13s 9 11 mph 1017.4mb 75f 72f
3:50am 18.5ft 17s 13s 9 13 mph 1017mb 75f 72f
2:50am 16ft 17s 13s 9 11 mph 1017mb 75f 72f
1:50am 17ft 19s 14s 7 11 mph 1017.4mb 75f 71f
12:50am 20.5ft 17s 14s 7 11 mph 1017.7mb 75f 71f
Wed 02/10 11:50pm 19ft 17s 13s 7 9 mph 1018mb 75f 70f
10:50pm 15.5ft 19s 13s 13 16 mph 1018.5mb 75f 69f
9:50pm 19.5ft 19s 14s 9 18 mph 1018.6mb 75f 72f
8:50pm 17ft 17s 14s 7 11 mph 1018.8mb 75f 73f
7:50pm 17ft 19s 14s 9 13 mph 1018.6mb 75f 73f
6:50pm 18ft 19s 14s 9 13 mph 1017.9mb 75f 73f
5:50pm 15.5ft 17s 13s 9 11 mph 1017.1mb 75f 73f
4:50pm 18.5ft 19s 14s 7 9 mph 1016.5mb 75f 74f
3:50pm 15.5ft 19s 13s 9 11 mph 1016.4mb 75f 74f
2:50pm 16.5ft 19s 13s 9 11 mph 1016.5mb 75f 73f
1:50pm 14ft 19s 12s 11 13 mph 1016.9mb 75f 73f
12:50pm 13ft 19s 12s 11 13 mph 1018.1mb 75f 73f
11:50am 13ft 19s 12s 9 13 mph 1019.1mb 75f 73f
10:50am 13ft 19s 11s 9 11 mph 1019.9mb 75f 73f
9:50am 11.5ft 11s 10s 11 16 mph 1019.8mb 75f 73f
8:50am 12ft 19s 11s 11 13 mph 1019.2mb 75f 73f
7:50am 12ft 19s 11s 9 13 mph 1018.9mb 75f 73f
6:50am 12ft 21s 11s 9 11 mph 1018.6mb 75f 73f
5:50am 11ft 13s 10s 7 9 mph 1018.3mb 75f 72f
4:50am 10.5ft 11s 10s 7 11 mph 1017.7mb 75f 72f
3:50am 10ft 12s 10s 9 13 mph 1017.5mb 75f 72f
2:50am 9.5ft 12s 10s 9 11 mph 1017.5mb 75f 72f
1:50am 10ft 13s 10s 7 11 mph 1017.9mb 75f 72f
12:50am 10.5ft 12s 9s 9 11 mph 1018mb 75f 72f
Tue 02/09 11:50pm 9ft 11s 9s 9 11 mph 1018.2mb 75f 72f
10:50pm 8.5ft 12s 9s 9 13 mph 1018.3mb 75f 72f
9:50pm 9ft 12s 9s 7 11 mph 1018.4mb 75f 72f
8:50pm 10.5ft 12s 9s 9 13 mph 1018.2mb 75f 72f
7:50pm 10ft 13s 9s 11 13 mph 1018mb 75f 72f
6:50pm 8ft 11s 8s 11 16 mph 1017mb 75f 72f
5:50pm 8.5ft 12s 8s 13 16 mph 1016.4mb 75f 73f
4:50pm 9ft 12s 8s 13 18 mph 1015.6mb 75f 73f
3:50pm 9.5ft 12s 8s 16 18 mph 1015.4mb 75f 73f
2:50pm 9ft 13s 9s 13 18 mph 1015.5mb 75f 72f
1:50pm 8.5ft 12s 8s 16 18 mph 1015.8mb 75f 72f
12:50pm 9ft 13s 9s 13 18 mph 1016.4mb 75f 72f
11:50am 10ft 11s 9s 13 16 mph 1017.3mb 75f 72f
10:50am 10ft 13s 9s 13 18 mph 1018.4mb 75f 72f
9:50am 9.5ft 12s 9s 11 13 mph 1018.6mb 75f 72f
8:50am 11ft 13s 10s 9 11 mph 1018.3mb 75f 72f
7:50am 10ft 14s 10s 9 13 mph 1017.7mb 75f 71f
6:50am 10ft 14s 10s 11 13 mph 1017.4mb 75f 71f
5:50am 10.5ft 13s 9s 9 13 mph 1016.7mb 75f 71f
4:50am 12ft 14s 10s 11 16 mph 1016.4mb 75f 71f
3:50am 12ft 14s 10s 11 13 mph 1016.1mb 75f 71f
2:50am 12ft 14s 10s 9 13 mph 1015.9mb 75f 71f
1:50am 12ft 15s 10s 9 11 mph 1016.4mb 75f 71f
12:50am 11.5ft 14s 9s 9 13 mph 1016.9mb 75f 70f
Mon 02/08 11:50pm 13ft 13s 10s 9 13 mph 1016.8mb 75f 70f
10:50pm 11ft 12s 10s 9 13 mph 1017.1mb 75f 70f
9:50pm 11ft 14s 9s 9 13 mph 1016.6mb 75f 70f